Location: Unspecified
(0.0000°N, 0.0000°E)
Time: 20:53:46
(UTC+00:00)

USA 278 - Pass Details

Date: 14 June 2023
Orbit: 1731 x 38625 km, 63.0° (Epoch: 06 September)

Event Time Altitude Azimuth Distance (km) Brightness Sun altitude
Exits shadow 02:19:26 38° 275° (W) 9,591 ? -49.0°
Maximum altitude 13:07:08 63° 261° (W) 7,232 ? 61.6°
Drops below altitude 10° 13:26:23 10° 176° (S) 5,737 ? 58.7°
Sets 13:28:56 0° 171° (S) 6,219 ? 58.3°
